Weather History for China Lake, CA

Change the Weather History Date:

Friday, July 27, 2012

  Actual Average Record
Temperature  
Mean Temperature 85 °F -  
Max Temperature 100 °F 100 °F 109 °F (1998)
Min Temperature 70 °F 72 °F 64 °F (2011)
Cooling Degree Days 20    
Growing Degree Days 35 (Base 50)    
Moisture  
Dew Point 30 °F    
Average Humidity 17    
Maximum Humidity 30    
Minimum Humidity 4    
Precipitation  
Precipitation 0.00 in - - ()
Sea Level Pressure  
Sea Level Pressure 29.84 in    
Wind  
Wind Speed 9 mph (South)    
Max Wind Speed 22 mph    
Max Gust Speed 28 mph    
Visibility 10 miles    
Events      
Averages and records for this station are not official NWS values.
T = Trace of Precipitation, MM = Missing Value Source: NWS Daily Summary

Daily Weather History Graph

Daily Weather History Graph

Search for Another Location

Airport:

Trip Planner

Search our weather history database for the weather conditions in past years. The results will help you decide how hot, cold, wet, or windy it might be!

Date:

Astronomy

Jul. 27, 2012 Rise Set
Actual Time 5:55 AM PDT 7:58 PM PDT
Civil Twilight 5:26 AM PDT 8:27 PM PDT
Nautical Twilight 4:52 AM PDT 9:01 PM PDT
Astronomical Twilight 4:14 AM PDT 9:38 PM PDT
Moon 3:00 PM PDT (7/27) 12:30 AM PDT (7/27)
Length of Visible Light 15h 00m
Length of Day
14h 03m
Waxing Gibbous, 66% of the Moon is Illuminated
Jul 27
Waxing Gibbous
Aug 1
Full
Aug 9
Last Quarter
Aug 17
New
Aug 24
First Quarter

Hourly Weather History & Observations

Time (PDT) Temp. Dew Point Humidity Pressure Visibility Wind Dir Wind Speed Gust Speed Precip Events Conditions
12:56 AM 77.0 °F 36.0 °F 23% 29.82 in 10.0 mi South 11.5 mph - N/A   Clear
1:56 AM 75.9 °F 37.9 °F 25% 29.82 in 10.0 mi South 13.8 mph - N/A   Clear
2:56 AM 73.0 °F 37.0 °F 27% 29.83 in 10.0 mi South 11.5 mph - N/A   Clear
3:56 AM 72.0 °F 37.9 °F 29% 29.82 in 10.0 mi South 10.4 mph - N/A   Clear
4:56 AM 71.1 °F 36.0 °F 28% 29.84 in 10.0 mi WSW 3.5 mph - N/A   Clear
5:56 AM 70.0 °F 37.0 °F 30% 29.85 in 10.0 mi South 3.5 mph - N/A   Clear
6:56 AM 70.0 °F 36.0 °F 29% 29.88 in 10.0 mi Calm Calm - N/A   Clear
7:56 AM 73.9 °F 36.0 °F 25% 29.90 in 10.0 mi Calm Calm - N/A   Clear
8:56 AM 79.0 °F 37.0 °F 22% 29.91 in 10.0 mi West 4.6 mph - N/A   Clear
9:56 AM 84.0 °F 36.0 °F 18% 29.91 in 10.0 mi SE 3.5 mph - N/A   Clear
10:56 AM 89.1 °F 36.0 °F 15% 29.91 in 10.0 mi Variable 5.8 mph - N/A   Clear
11:56 AM 91.0 °F 33.1 °F 13% 29.89 in 10.0 mi SSE 5.8 mph - N/A   Clear
12:56 PM 93.0 °F 32.0 °F 12% 29.88 in 10.0 mi Calm Calm - N/A   Clear
1:56 PM 98.1 °F 28.0 °F 8% 29.84 in 10.0 mi ESE 6.9 mph - N/A   Clear
2:56 PM 100.0 °F 15.1 °F 5% 29.82 in 10.0 mi Variable 3.5 mph - N/A   Clear
3:56 PM 100.9 °F 3.9 °F 4% 29.80 in 10.0 mi South 12.7 mph 21.9 mph N/A   Clear
4:56 PM 100.9 °F 5.0 °F 4% 29.78 in 10.0 mi South 17.3 mph 23.0 mph N/A   Clear
5:56 PM 99.0 °F 14.0 °F 5% 29.77 in 10.0 mi South 20.7 mph 27.6 mph N/A   Clear
6:56 PM 95.0 °F 28.9 °F 10% 29.77 in 10.0 mi South 21.9 mph 27.6 mph N/A   Clear
7:56 PM 90.0 °F 36.0 °F 15% 29.79 in 10.0 mi South 15.0 mph 23.0 mph N/A   Clear